Regional Weather Roundup
Issued by NWS

Home | Current Version | Previous Version | Text Only | Print | Product List | Glossary On
Versions: 1 2 3 4 5 6 7 8 9 10 11 12 13 14 15 16 17 18 19 20 21 22 23 24 25 26 27 28 29 30 31 32 33 34 35 36 37 38 39 40 41 42 43 44 45 46 47 48 49 50
000
ASUS43 KMKX 201521
RWRWI

WISCONSIN REGIONAL WEATHER ROUNDUP
NATIONAL WEATHER SERVICE MILWAUKEE/SULLIVAN WI
900 AM CST FRI JAN 20 2017

NOTE: "FAIR" INDICATES FEW OR NO CLOUDS BELOW 12,000 FEET WITH NO
SIGNIFICANT WEATHER AND/OR OBSTRUCTIONS TO VISIBILITY.

WIZ001-002-006>008-014>016-023>028-201600-
NORTHWEST WISCONSIN

CITY           SKY/WX    TMP DP  RH WIND       PRES   REMARKS
SUPERIOR ARPT  FOG       34  34 100 NE7       29.68S VSB 1   WCI  28
ASHLAND        CLOUDY    35  31  85 NE3       29.70R
HAYWARD        CLOUDY    36  33  89 SE6       29.66F WCI  31
SIREN          CLOUDY    36  35  98 CALM      29.65S FOG
CUMBERLAND     DRIZZLE   34  32  93 SE5       29.64S WCI  30
RICE LAKE      DRIZZLE   35  34  98 E5        29.66F WCI  31
CHETEK         DRIZZLE   34  34 100 CALM      29.66S
LADYSMITH      CLOUDY    35  34  96 E6        29.68S FOG     WCI  30
EAU CLAIRE     FOG       35  35 100 E5        29.65S VSB 1   WCI  31
MENOMONIE        N/A    N/A N/A N/A MISG        N/A
NEW RICHMOND   CLOUDY    34  34 100 E5        29.64S FOG     WCI  30
OSCEOLA        CLOUDY    35  35 100 E7        29.66F FOG     WCI  29
$$

WIZ003>005-009-010-017-018-201600-
NORTH CENTRAL WISCONSIN

CITY           SKY/WX    TMP DP  RH WIND       PRES   REMARKS
MANITOWISH WTR MIX PCPN  31  31 100 NE3       29.68S
ARBOR VITAE    MIX PCPN  34  33  96 CALM      29.67F
WOODRUFF       MIX PCPN  34  33  96 CALM      29.67F
RHINELANDER    CLOUDY    33  33 100 CALM      29.67F FOG
EAGLE RIVER    MIX PCPN  32  32 100 CALM      29.67F
LAND O LAKES   CLOUDY    30  30 100 CALM      29.69F
PHILLIPS       DRIZZLE   33  33 100 CALM      29.66S
TOMAHAWK       DRIZZLE   32  32  99 CALM      29.68F
MEDFORD        DRIZZLE   33  32  97 E8        29.65F WCI  26
MERRILL        CLOUDY    33  33 100 CALM        N/A  FOG
$$

WIZ029-030-035-036-043>047-201600-
CENTRAL WISCONSIN

CITY           SKY/WX    TMP DP  RH WIND       PRES   REMARKS
WAUSAU         CLOUDY    33  32  96 E3        29.67S FOG
MOSINEE        CLOUDY    32  32 100 NE9       29.68F FOG     WCI  24
MARSHFIELD     CLOUDY    33  32  96 E6        29.65S FOG     WCI  28
STEVENS POINT  CLOUDY    32  32 100 E6        29.68S FOG     WCI  26
WAUPACA        CLOUDY    35  34  96 CALM      29.69S FOG
WAUTOMA        LGT RAIN  34  33  96 NE6       29.69R FOG     WCI  29
WISC RAPIDS    CLOUDY    34  34 100 E8        29.68S FOG     WCI  27
CAMP DOUGLAS   CLOUDY    34  34 100 E5        29.66S FOG     WCI  30
$$

WIZ011>013-019>022-031-037>040-048>050-201600-
NORTHEAST WISCONSIN

CITY           SKY/WX    TMP DP  RH WIND       PRES   REMARKS
ANTIGO         CLOUDY    32  32 100 CALM      29.68S FOG
SHAWANO        DRIZZLE   34  33  95 CALM      29.71S
OCONTO         CLOUDY    32  32 100 NE3       29.73S
STURGEON BAY   FOG       33  33 100 N5        29.73S VSB 1/4 WCI  29
GREEN BAY      LGT RAIN  34  34 100 NE13      29.70F FOG     WCI  25
MANITOWOC      LGT RAIN  36  34  92 N5        29.70S VSB 3/4 WCI  32
APPLETON       DRZL/FOG  34  34 100 NE8       29.67F VSB 1   WCI  27
CLINTONVILLE   DRIZZLE   32  32 100 NE6       29.70S WCI  26
OSHKOSH        CLOUDY    34  32  92 NE9       29.67F FOG     WCI  27
$$

WIZ032>034-041-042-053>061-201600-
SOUTHWEST WISCONSIN

CITY           SKY/WX    TMP DP  RH WIND       PRES   REMARKS
LA CROSSE      FOG       36  34  92 CALM      29.65S VSB 1/4
SPARTA         CLOUDY    34  34 100 E3        29.66S FOG
VIROQUA        CLOUDY    34  34 100 E6        29.63S VSB 1/2 WCI  29
BOSCOBEL       CLOUDY    37  36  96 NE5       29.65S FOG     WCI  33
PRAIRIE DU CHI CLOUDY    35  34  96 CALM      29.64R FOG
PLATTEVILLE    CLOUDY    36  36 100 E9        29.63S VSB 3/4 WCI  29
$$

WIZ056-057-062-063-064-067-068-201600-
SOUTH CENTRAL WISCONSIN

CITY           SKY/WX    TMP DP  RH WIND       PRES   REMARKS
REEDSBURG      CLOUDY    33  33 100 E5        29.65S FOG     WCI  29
BARABOO/DELLS  FOG       33  33  99 E5        29.65S VSB 1/2 WCI  29
LONE ROCK      CLOUDY    36  34  92 E5        29.66R FOG     WCI  32
MINERAL POINT  CLOUDY    36  36 100 E5        29.63R FOG     WCI  32
MADISON        LGT RAIN  35  34  96 E3        29.66S VSB 1
MIDDLETON      CLOUDY    36  36 100 E3        29.66R
WATERTOWN      DRIZZLE   36  36 100 CALM      29.66R
MONROE         FOG       36  36 100 NE5       29.63S VSB<1/4 WCI  32
JANESVILLE     CLOUDY    37  37 100 NE6       29.64R FOG     WCI  33
$$

WIZ051-052-058>065-066-070>072-201600-
SOUTHEAST WISCONSIN

CITY           SKY/WX    TMP DP  RH WIND       PRES   REMARKS
MILWAUKEE      LGT RAIN  38  36  92 NE10      29.66S VSB 1/2 WCI  31
WAUKESHA       LGT RAIN  36  36 100 NE7       29.66R WCI  30
MILWAUKEE/TIMM RAIN      36  34  93 NE7       29.66S WCI  30
RACINE         CLOUDY    37  36  96 NE10      29.67R FOG     WCI  30
KENOSHA        CLOUDY    38  37  97 NE10      29.65R FOG     WCI  31
FOND DU LAC    LGT RAIN  35  32  88 NE6       29.67S FOG     WCI  30
SHEBOYGAN      LGT RAIN  35  34  96 NE9       29.68R VSB 1/4 WCI  28
WEST BEND      RAIN      34  34 100 NE7       29.66S WCI  28
JUNEAU         DRIZZLE   35  34  97 NE6       29.67S WCI  30
$$

LSZ147-162-201600-
LAKE SUPERIOR

STATION/POSITION TIME  TEMP    WIND        PRES    WAVE
                       AIR SEA DIR/SP/G            HT/PER
                 (UTC) (F)     (DEG/KT/KT) (MB)    (FT/S)
DEVILS ISLAND    1500   35     130/  4/  6 1006.5R
PORT WING        1440   33      20/  1/  2 1005.8S
SAXON HARBOR     1440   33      CALM  /  1 1005.8S
$$

LMZ867-665-643>646-201600-
LAKE MICHIGAN

STATION/POSITION TIME  TEMP    WIND        PRES    WAVE
                       AIR SEA DIR/SP/G            HT/PER
                 (UTC) (F)     (DEG/KT/KT) (MB)    (FT/S)
NORTHPORT PIER   1440   34      CALM  /  2 1007.1R
SISTER BAY       1420   34        CALM       N/A
KEWAUNEE LAKESHO 1454   35      20/  7/ 11 1005.8F
SHEBOYGAN LAKESH 1500   35      10/  7/  7 1005.4F
PORT WASHINGTON  1440   36      30/  6/  8 1005.8S
KENOSHA   LAKESH 1500   35     350/  5/  5 1004.4
$$

TC  - TEMPERATURE IN CELSIUS
VSB - VISIBILITY IN STATUTE MILES
WCI - WIND CHILL INDEX
HX  - HEAT INDEX





USA.gov is the U.S. government's official web portal to all federal, state and local government web resources and services.